Weather History for Campo, CA

Change the Weather History Date:

Sunday, February 10, 2013

  Actual Average Record
Temperature  
Mean Temperature 35 °F 49 °F  
Max Temperature 45 °F 64 °F 80 °F (1951)
Min Temperature 24 °F 35 °F 19 °F (1953)
Degree Days  
Heating Degree Days 30 16  
Month to date heating degree days 182 160  
Since 1 July heating degree days 1763 1776  
Cooling Degree Days 0 0  
Month to date cooling degree days 0 0  
Year to date cooling degree days 0 0  
Moisture  
Dew Point 30 °F    
Average Humidity 75    
Maximum Humidity 92    
Minimum Humidity 58    
Precipitation  
Precipitation 0.00 in 0.10 in 1.86 in (1963)
Month to date precipitation 0.34 1.04  
Year to date precipitation 2.37 4.02  
Since 1 July precipitation 6.84 9.60  
Snow  
Snow 0.00 in - - ()
Month to date snowfall 0.0  
Year to date snowfall 0.0  
Since 1 July snowfall 0.0  
Snow Depth 0.00 in    
Sea Level Pressure  
Sea Level Pressure 29.99 in    
Wind  
Wind Speed 6 mph (WSW)    
Max Wind Speed 17 mph    
Max Gust Speed 21 mph    
T = Trace of Precipitation, MM = Missing Value Source: NWS Daily Summary

Daily Weather History Graph

Daily Weather History Graph

Search for Another Location

Airport:

Trip Planner

Search our weather history database for the weather conditions in past years. The results will help you decide how hot, cold, wet, or windy it might be!

Date:

Astronomy

Feb. 10, 2013 Rise Set
Actual Time 6:33 AM PST 5:27 PM PST
Civil Twilight 6:07 AM PST 5:52 PM PST
Nautical Twilight 5:38 AM PST 6:21 PM PST
Astronomical Twilight 5:10 AM PST 6:50 PM PST
Moon 6:30 AM PST (2/10) 6:17 PM PST (2/10)
Length of Visible Light 11h 45m
Length of Day
10h 54m
New Moon, 0% of the Moon is Illuminated
Feb 10
New Moon
Feb 17
First Quarter
Feb 25
Full
Mar 4
Last Quarter
Mar 11
New

Hourly Weather History & Observations

Time (PST) Temp. Windchill Dew Point Humidity Pressure Visibility Wind Dir Wind Speed Gust Speed Precip Events Conditions
12:52 AM 30.9 °F - 28.9 °F 92% 30.03 in - Calm Calm - N/A   Unknown
1:52 AM 32.0 °F - 28.9 °F 88% 30.02 in - Calm Calm - N/A   Unknown
2:52 AM 28.0 °F - 26.1 °F 92% 30.01 in - Calm Calm - N/A   Unknown
3:52 AM 27.0 °F 23.0 °F 25.0 °F 92% 29.99 in - NNE 3.5 mph - N/A   Unknown
4:52 AM 27.0 °F 23.0 °F 24.1 °F 89% 29.99 in - ENE 3.5 mph - N/A   Unknown
5:52 AM 25.0 °F 20.7 °F 21.9 °F 88% 30.00 in - NE 3.5 mph - N/A   Unknown
6:52 AM 25.0 °F 20.7 °F 21.9 °F 88% 30.01 in - NE 3.5 mph - N/A   Unknown
7:52 AM 30.9 °F - 28.0 °F 89% 30.01 in - Calm Calm - N/A   Unknown
8:52 AM 39.0 °F 36.8 °F 34.0 °F 82% 30.01 in - South 3.5 mph - N/A   Unknown
9:52 AM 42.1 °F 34.9 °F 30.9 °F 65% 30.01 in - SW 13.8 mph - N/A   Unknown
10:52 AM 43.0 °F 38.2 °F 30.9 °F 62% 30.01 in - WSW 8.1 mph 18.4 mph N/A   Unknown
11:52 AM 44.1 °F 37.4 °F 32.0 °F 63% 29.99 in - WSW 13.8 mph - N/A   Unknown
12:52 PM 44.1 °F 36.8 °F 30.9 °F 60% 29.96 in - WSW 16.1 mph - N/A   Unknown
1:52 PM 44.1 °F 39.0 °F 30.9 °F 60% 29.96 in - WSW 9.2 mph - N/A   Unknown
2:52 PM 44.1 °F 38.1 °F 30.9 °F 60% 29.95 in - SW 11.5 mph - N/A   Unknown
3:52 PM 43.0 °F 36.8 °F 33.1 °F 68% 29.96 in - SW 11.5 mph - N/A   Unknown
4:52 PM 43.0 °F 38.2 °F 32.0 °F 65% 29.96 in - WSW 8.1 mph - N/A   Unknown
5:52 PM 41.0 °F 37.1 °F 32.0 °F 70% 29.97 in - West 5.8 mph - N/A   Unknown
6:52 PM 37.9 °F 32.7 °F 32.0 °F 79% 29.98 in - SW 6.9 mph - N/A   Unknown
7:52 PM 36.0 °F 33.3 °F 30.9 °F 82% 29.98 in - ENE 3.5 mph - N/A   Unknown
8:52 PM 39.0 °F 36.8 °F 35.1 °F 86% 29.97 in - WNW 3.5 mph - N/A   Unknown
9:52 PM 39.0 °F - 34.0 °F 82% 29.97 in - Calm Calm - N/A   Unknown
10:52 PM 39.0 °F - 35.1 °F 86% 29.97 in - Calm Calm - N/A   Unknown
11:52 PM 39.0 °F - 34.0 °F 82% 29.97 in - Calm Calm - N/A   Unknown